Regional Weather Roundup
Issued by NWS Jackson, KY

Home | Current Version | Previous Version | Graphics & Text | Print | Product List | Glossary On
Versions: 1 2 3 4 5 6 7 8 9 10 11 12 13 14 15 16 17 18 19 20 21 22 23 24 25 26 27 28 29 30 31 32 33 34 35 36 37 38 39 40 41 42 43 44 45 46 47 48 49 50
136
ASUS43 KJKL 211610
RWRJKL

EAST KENTUCKY HOURLY WEATHER ROUNDUP
NATIONAL WEATHER SERVICE JACKSON KY
1100 AM EST WED FEB 21 2018

NOTE: "FAIR" INDICATES FEW OR NO CLOUDS BELOW 12,000 FEET WITH
NO SIGNIFICANT WEATHER AND/OR OBSTRUCTIONS TO VISIBILITY.

* THESE REPORTS ARE NOT UNDER NWS QUALITY CONTROL AND MAY NOT
  REPORT WEATHER SUCH AS PRECIPITATION AND FOG.

KYZ079-080-083-085-087-088-110-112-115-119-120-211700
...EASTERN KENTUCKY...

CITY           SKY/WX    TMP DP  RH WIND       PRES   REMARKS
JACKSON        PTSUNNY   73  59  61 SW12G23   30.31S
LONDON         PTSUNNY   73  59  61 SW14G26   30.33R
SOMERSET*      PTSUNNY   70  61  73 MISG      30.33S
WILLIAMSBURG*  PTSUNNY   72  59  64 SW13G22   30.34R
MIDDLESBORO*   CLOUDY    68  63  82 S9        30.38R
HARLAN APT*    CLOUDY    68  59  73 SE6       30.38R
PIKE CO APT*   CLOUDY    73  58  60 S12G20    30.33S
BIG SANDY APT* PTSUNNY   75  60  59 SW13G25   30.31F
MOREHEAD APT*  CLOUDY    59  54  82 NW12G23   30.36R
ASHLAND*       LGT RAIN  61  57  88 NW15G24   30.30  FOG
$$

KYZ035-036-041-042-044-050-067-078-099-211700
...CENTRAL KENTUCKY...

CITY           SKY/WX    TMP DP  RH WIND       PRES   REMARKS
MT STERLING*   RAIN      55  54  94 NE6       30.36R
FLEMING/MASON* CLOUDY    56  55  97 N7        30.36R
DANVILLE*      CLOUDY    55  55 100 NE8       30.37R
LEXINGTON      CLOUDY    60  55  83 NE10      30.35R
FRANKFORT      CLOUDY    60  55  83 NW6       30.35R
LOUISVILLE     LGT RAIN  55  53  93 NW13      30.39R FOG
LEBANON*       CLOUDY    59  57  94 CALM      30.37R
GLASGOW*       RAIN      58  56  93 CALM      30.36R
BOWLING GREEN  CLOUDY    56  54  93 NW9       30.38R
$$

KYZ091>093-OHZ055-061-077-WVZ005-015-034-035-042-211700
...SOUTHERN OHIO/WEST VIRGINIA...

CITY           SKY/WX    TMP DP  RH WIND       PRES   REMARKS
COVINGTON      LGT RAIN  51  51 100 N17       30.35R FOG
COLUMBUS       LGT RAIN  58  56  93 NW7       30.32R FOG
DAYTON         LGT RAIN  43  43 100 NW17      30.41R
WILMINGTON     CLOUDY    56  56 100 N3        30.33R
HUNTINGTON     CLOUDY    75  58  55 SW15G28   30.27F
CHARLESTON     CLOUDY    75  57  53 SW15G30   30.29R
BECKLEY        PTSUNNY   69  56  62 SW16G22   30.39S
BLUEFIELD      PTSUNNY   69  54  58 SW9G20    30.43S
LOGAN CO APT*  PTSUNNY   73  57  56 S8G18     30.34S
$$

VAZ002-007-008-TNZ017-027-036-066-071-211700
...SOUTHWEST VIRGINIA/EAST TENNESSEE...

CITY           SKY/WX    TMP DP  RH WIND       PRES   REMARKS
WISE*          PTSUNNY   68  59  73 S15       30.42S
JONESVILLE*    LGT RAIN  64  63  94 CALM      30.42R
ABINGDON*        N/A     75  58  57 SW14G25   30.41S
BRISTOL          N/A     74  60  61 SW5       30.39S
MORRISTOWN*    PTSUNNY   70  63  78 VRB5      30.39R
SEVIERVILLE*   CLOUDY    72  64  78 NW5       30.38R
KNOXVILLE      PTSUNNY   75  66  73 SW15      30.36S
LAFOLLETTE*    CLOUDY    72  63  73 SW8       30.40S
OAK RIDGE      CLOUDY    71  66  84 S10       30.37S
CROSSVILLE     CLOUDY    67  61  81 S10G21    30.38R
NASHVILLE      CLOUDY    61  55  81 N14       30.33R
$$

...KEY TO REMARKS...
VSB - VISIBILITY IN MILES
WCI - WIND CHILL INDEX
HX  - HEAT INDEX

$$




USA.gov is the U.S. government's official web portal to all federal, state and local government web resources and services.